Location: ????????
(55.6189°N, 38.3031°E)
Time: 19:26:32
(UTC+00:00)

Okean 3 Rocket - Pass Details

Date: 15 November 2019
Orbit: 614 x 646 km, 82.5° (Epoch: 08 December)

Event Time Altitude Azimuth Distance (km) Brightness Sun altitude
Rises 02:47:27 0° 187° (S) 2,943 7.0 -18.4°
Reaches altitude 10° 02:49:41 10° 187° (S) 2,035 6.2 -18.1°
Maximum altitude 02:54:13 82° 101° (E) 653 3.7 -17.5°
Drops below altitude 10° 02:58:44 10° 13° (NNE) 2,033 6.3 -16.8°
Sets 03:00:58 0° 13° (NNE) 2,940 7.1 -16.5°
